TimeHST,TemperatureF,Dew PointF,Humidity,Sea Level PressureIn,VisibilityMPH,Wind Direction,Wind SpeedMPH,Gust SpeedMPH,PrecipitationIn,Events,Conditions,WindDirDegrees,DateUTC
12:53 AM,73.9,66.9,79,29.98,10.0,North,3.5,-,N/A,,Scattered Clouds,10,2013-10-24 10:53:00
1:53 AM,73.0,66.9,81,29.96,10.0,North,3.5,-,N/A,,Scattered Clouds,360,2013-10-24 11:53:00
2:53 AM,72.0,66.0,81,29.96,10.0,Calm,Calm,-,N/A,,Scattered Clouds,0,2013-10-24 12:53:00
3:53 AM,72.0,66.9,84,29.95,10.0,North,4.6,-,N/A,,Scattered Clouds,350,2013-10-24 13:53:00
4:53 AM,72.0,66.9,84,29.95,10.0,NNW,3.5,-,N/A,,Scattered Clouds,330,2013-10-24 14:53:00
5:53 AM,71.1,66.0,84,29.96,10.0,NNW,3.5,-,N/A,,Scattered Clouds,340,2013-10-24 15:53:00
6:53 AM,72.0,66.9,84,29.97,10.0,North,5.8,-,N/A,,Scattered Clouds,350,2013-10-24 16:53:00
7:53 AM,75.9,66.9,74,29.99,10.0,NNW,4.6,-,N/A,,Scattered Clouds,330,2013-10-24 17:53:00
8:53 AM,80.1,68.0,67,29.99,10.0,Calm,Calm,-,0.00,,Scattered Clouds,0,2013-10-24 18:53:00
9:53 AM,82.9,64.0,53,29.99,10.0,ENE,13.8,-,N/A,,Mostly Cloudy,60,2013-10-24 19:53:00
10:53 AM,84.0,64.9,53,29.98,10.0,ENE,9.2,-,N/A,,Scattered Clouds,70,2013-10-24 20:53:00
11:53 AM,87.1,62.1,43,29.95,10.0,ENE,10.4,17.3,N/A,,Scattered Clouds,60,2013-10-24 21:53:00
12:53 PM,88.0,64.0,45,29.93,10.0,ENE,12.7,21.9,N/A,,Scattered Clouds,70,2013-10-24 22:53:00
1:53 PM,87.1,62.1,43,29.91,10.0,ENE,17.3,-,N/A,,Scattered Clouds,70,2013-10-24 23:53:00
2:53 PM,86.0,61.0,43,29.89,10.0,East,16.1,21.9,N/A,,Scattered Clouds,80,2013-10-25 00:53:00
3:53 PM,86.0,64.0,48,29.90,10.0,East,16.1,20.7,N/A,,Scattered Clouds,80,2013-10-25 01:53:00
4:53 PM,84.0,64.9,53,29.92,10.0,NNE,12.7,-,N/A,,Scattered Clouds,30,2013-10-25 02:53:00
5:53 PM,81.0,64.9,58,29.94,10.0,ENE,13.8,-,N/A,,Scattered Clouds,70,2013-10-25 03:53:00
6:53 PM,79.0,66.0,64,29.96,10.0,East,5.8,-,N/A,,Scattered Clouds,80,2013-10-25 04:53:00
7:53 PM,79.0,66.0,64,29.98,10.0,East,5.8,-,N/A,,Partly Cloudy,90,2013-10-25 05:53:00
8:53 PM,78.1,66.0,66,29.99,10.0,NE,3.5,-,N/A,,Partly Cloudy,50,2013-10-25 06:53:00
9:53 PM,77.0,66.0,69,30.00,10.0,Variable,3.5,-,N/A,,Partly Cloudy,0,2013-10-25 07:53:00
10:53 PM,77.0,66.0,69,30.00,10.0,North,4.6,-,N/A,,Partly Cloudy,350,2013-10-25 08:53:00
11:53 PM,75.0,66.0,73,29.99,10.0,Calm,Calm,-,N/A,,Scattered Clouds,0,2013-10-25 09:53:00